• MPC Preparation (Info)

  • MPEC 2016-R160: 2016 RE34

    The following Minor Planet Electronic Circular may be linked-to from your own Web pages, but must not otherwise be redistributed electronically.

    A form allowing access to any MPEC is at the bottom of this page.


    Read MPEC 2016-R159 Read MPEC 2016-R161


    M.P.E.C. 2016-R160                               Issued 2016 Sept. 14, 03:02 UT
    
         The Minor Planet Electronic Circulars contain information on unusual
             minor planets and routine data on comets.  They are published
        on behalf of Division F of the International Astronomical Union by the
              Minor Planet Center, Smithsonian Astrophysical Observatory,
                              Cambridge, MA 02138, U.S.A.
    
                 Prepared using the Tamkin Foundation Computer Network
    
                                  MPC@CFA.HARVARD.EDU
                URL https://www.minorplanetcenter.net/    ISSN 1523-6714
    
                                       2016 RE34
    
    Observations:
         K16R34E* C2016 09 12.32218 01 31 38.59 +09 49 49.2          17.7 VqER160703
         K16R34E  C2016 09 12.32825 01 32 10.40 +09 50 36.2          17.6 VqER160703
         K16R34E  C2016 09 12.34036 01 33 12.76 +09 52 04.3          17.5 VqER160703
         K16R34E  C2016 09 12.36917 01 35 37.87 +09 55 23.7          18.2 VqER160703
         K16R34E  C2016 09 12.37461 01 36 04.79 +09 55 58.4          18.1 VqER160703
         K16R34E  C2016 09 12.37470 01 36 05.35 +09 55 58.4          17.9 VqER160G96
         K16R34E  C2016 09 12.37494 01 36 06.53 +09 55 59.8          18.1 VqER160G96
         K16R34E  C2016 09 12.37500 01 36 06.78 +09 56 00.7          18.1 VqER160703
         K16R34E  C2016 09 12.37518 01 36 07.74 +09 56 01.4          18.2 VqER160G96
         K16R34E  C2016 09 12.37543 01 36 08.92 +09 56 03.1          18.1 VqER160G96
         K16R34E  C2016 09 12.37571 01 36 10.32 +09 56 04.7          18.1 VqER160G96
         K16R34E  C2016 09 12.37595 01 36 11.51 +09 56 06.2          17.9 VqER160G96
         K16R34E  C2016 09 12.37619 01 36 12.70 +09 56 07.8          17.7 VqER160G96
         K16R34E  C2016 09 12.37644 01 36 13.91 +09 56 09.3          17.6 VqER160G96
         K16R34E  C2016 09 12.38043 01 36 33.23 +09 56 35.7          18.1 VqER160703
         K16R34E  C2016 09 12.38081 01 36 35.33 +09 56 38.3          18.6 VqER160703
         K16R34E  C2016 09 12.38626 01 37 01.92 +09 57 13.1          18.2 VqER160703
         K16R34E KC2016 09 12.42012 01 39 20.59 +09 57 05.2          17.9 RqER160H36
         K16R34E KC2016 09 12.42228 01 39 31.07 +09 57 16.7          17.8 RqER160H36
         K16R34E KC2016 09 12.42663 01 39 51.99 +09 57 39.0          17.9 RqER160H36
         K16R34E KC2016 09 12.43119 01 40 13.94 +09 58 02.1          18.1 RqER160H36
         K16R34E KC2016 09 12.43281 01 40 21.74 +09 58 10.4          17.7 RqER160H36
         K16R34E KC2016 09 13.00626 02 21 49.69 +10 29 07.9                qER160204
         K16R34E KC2016 09 13.01009 02 22 00.86 +10 29 17.4          18.7 RqER160204
         K16R34E KC2016 09 13.01392 02 22 11.96 +10 29 27.6                qER160204
         K16R34E  C2016 09 13.03560 02 23 06.61 +10 29 25.8                qER160246
         K16R34E  C2016 09 13.03590 02 23 07.46 +10 29 26.5                qER160246
         K16R34E  C2016 09 13.03602 02 23 07.81 +10 29 26.8          19.1 RqER160246
         K16R34E  C2016 09 13.03613 02 23 08.09 +10 29 27.7                qER160246
         K16R34E  C2016 09 13.03625 02 23 08.44 +10 29 28.0                qER160246
         K16R34E  C2016 09 13.03635 02 23 08.84 +10 29 28.2                qER160246
         K16R34E  C2016 09 13.03647 02 23 09.11 +10 29 28.4                qER160246
         K16R34E  C2016 09 13.03659 02 23 09.41 +10 29 28.5                qER160246
         K16R34E  C2016 09 13.03670 02 23 09.72 +10 29 29.1          18.8 RqER160246
         K16R34E  C2016 09 13.03682 02 23 10.08 +10 29 29.0                qER160246
         K16R34E KC2016 09 13.06752202 24 51.46 +10 29 33.0                qER160J95
         K16R34E KC2016 09 13.06871702 24 54.81 +10 29 35.3                qER160J95
         K16R34E KC2016 09 13.06995402 24 58.25 +10 29 37.8          18.5 RqER160J95
         K16R34E KC2016 09 13.08293 02 25 18.23 +10 30 27.4          19.0 RqER160K62
         K16R34E KC2016 09 13.08467 02 25 23.04 +10 30 30.0          18.8 RqER160K62
         K16R34E KC2016 09 13.08641 02 25 27.68 +10 30 32.3          18.2 RqER160K62
         K16R34E KC2016 09 13.08815 02 25 32.40 +10 30 37.3          19.3 RqER160K62
         K16R34E KC2016 09 13.08989 02 25 37.14 +10 30 39.1          19.3 RqER160K62
         K16R34E KC2016 09 13.28390202 35 33.07 +10 38 31.8          19.1 VuER160H21
         K16R34E KC2016 09 13.28736802 35 41.03 +10 38 38.2          19.2 VuER160H21
         K16R34E KC2016 09 13.29057902 35 48.37 +10 38 43.8          19.3 VuER160H21
         K16R34E KC2016 09 13.29378402 35 55.66 +10 38 49.3          19.5 VuER160H21
         K16R34E KC2016 09 13.29686202 36 02.63 +10 38 54.3          19.5 VuER160H21
         K16R34E KC2016 09 14.01819 03 01 07.30 +10 44 35.2          19.2 RtER160104
         K16R34E KC2016 09 14.02014 03 01 09.99 +10 44 36.5          19.5 RtER160104
         K16R34E KC2016 09 14.02306 03 01 14.01 +10 44 38.6          19.5 RtER160104
         K16R34E KC2016 09 14.02599 03 01 18.03 +10 44 40.9          19.1 RtER160104
    
    Observer details:
    104 San Marcello Pistoiese.  Observers P. Bacci, M. Maestripieri.  Measurers
        P. Bacci, L. Tesi, G. Fagioli.  0.60-m f/4 reflector + CCD.
    204 Schiaparelli Observatory.  Observers L. Buzzi, M. Lucchetta.  0.60-m
        f/4.64 reflector + CCD.
    246 Klet Observatory-KLENOT.  Observers M. Tichy, J. Ticha.  Measurer M. Tichy.
        1.06-m KLENOT Telescope + CCD.
    703 Catalina Sky Survey.  Observer D. C. Fuls.  Measurers E. J. Christensen,
        D. C. Fuls, A. R. Gibbs, A. D. Grauer, J. A. Johnson, R. A. Kowalski,
        S. M. Larson, G. J. Leonard, R. G. Matheny, R. L. Seaman, F. C. Shelly.
        0.68-m Schmidt + CCD.
    G96 Mt. Lemmon Survey.  Observer R. A. Kowalski.  Measurers E. J. Christensen,
        D. C. Fuls, A. R. Gibbs, A. D. Grauer, J. A. Johnson, R. A. Kowalski,
        S. M. Larson, G. J. Leonard, R. G. Matheny, R. L. Seaman, F. C. Shelly.
        1.5-m reflector + 10K CCD.
    H21 Astronomical Research Observatory, Westfield.  Observer R. Holmes.
        Measurers S. Foglia, L. Buzzi, T. Linder, R. Holmes.  0.61-m f/4.5
        astrograph + CCD.
    H36 Sandlot Observatory, Scranton.  Observer G. Hug.  0.56-m reflector + CCD.
    J95 Great Shefford.  Observer P. Birtwhistle.  0.40-m f/6.0 Schmidt-Cassegrain
        + CCD.
    K62 Teplice Observatory.  Observer Z. Moravec.  0.43-m f/4.6 reflector + CCD.
    
    Orbital elements:
    2016 RE34                                                Earth MOID = 0.0022 AU
    Epoch 2016 July 31.0 TT = JDT 2457600.5                 MPC
    M 339.51892              (2000.0)            P               Q
    n   0.54828599     Peri.  172.86813     +0.95734813     +0.28890678
    a   1.4784204      Node   170.33627     -0.26630771     +0.88788370
    e   0.3178394      Incl.    1.42529     -0.11209265     +0.35804387
    P   1.80           H   28.3           G   0.15           U   6
    Residuals in seconds of arc
    160912 703  1.3-  0.9-    160912 H36  0.6+  0.1-    160913 J95  0.0   0.1-
    160912 703  1.2+  0.4+    160912 H36  0.3-  0.2-    160913 J95  0.0   0.3-
    160912 703  0.2+  0.3-    160912 H36  0.1-  0.3-    160913 K62  0.2+  0.1+
    160912 703  0.3-  0.7+    160912 H36  0.2+  0.1-    160913 K62  1.1+  0.4-
    160912 703  0.2-  0.0     160913 204  0.0   0.3+    160913 K62  0.3-  1.2-
    160912 G96  0.0   0.3+    160913 204  0.1+  0.3-    160913 K62  0.5-  0.8+
    160912 G96  0.1-  0.1+    160913 204  0.0   0.1+    160913 K62  0.3-  0.5-
    160912 703  0.8+  0.2-    160913 246  0.2+  0.5-    160913 H21  0.3-  0.1-
    160912 G96  0.3+  0.2+    160913 246  0.2+  0.5-    160913 H21  0.2-  0.2+
    160912 G96  0.5-  0.3+    160913 246  0.4+  0.4-    160913 H21  0.1-  0.2+
    160912 G96  0.2-  0.1+    160913 246  0.1-  0.2+    160913 H21  0.1-  0.2+
    160912 G96  0.1-  0.0     160913 246  0.0   0.2+    160913 H21  0.2-  0.0
    160912 G96  0.1+  0.1+    160913 246 (1.8+  0.2+)   160914 104  0.1-  0.2+
    160912 G96  0.3-  0.0     160913 246  0.7+  0.2+    160914 104  0.0   0.1+
    160912 703 (3.0-  0.1+)   160913 246  0.2+  0.0     160914 104  0.1+  0.2+
    160912 703  0.5+  0.3+    160913 246  0.1+  0.3+    160914 104  0.3+  0.5+
    160912 703  0.5-  0.9+    160913 246  0.4+  0.0
    160912 H36  0.0   0.4-    160913 J95  0.3-  0.3+
    
    Ephemeris:
    2016 RE34                a,e,i = 1.48, 0.32, 1                   q = 1.0085
    Date    TT    R. A. (2000) Decl.     Delta      r     Elong.  Phase     V
    2016 08 15    16 22 53.8 -10 27 25   0.07088 1.0311   103.1    73.1    25.2
    ...
    2016 08 30    16 33 30.3 -10 08 35   0.03273 1.0110    91.4    86.7    23.9
    ...
    2016 09 07    17 14 39.2 -09 14 03   0.01162 1.0086    93.8    85.6    21.6
    ...
    2016 09 13    02 20 49.5 +10 43 21   0.0060131.0103   133.8    45.9    19.0
    2016 09 14    03 00 07.1 +10 54 20   0.0084801.0108   125.4    54.2    19.9
    2016 09 15    03 21 22.7 +10 52 21   0.01106 1.0114   121.3    58.2    20.6
    ...
    2016 09 21    04 00 39.9 +10 32 24   0.02703 1.0167   117.5    61.1    22.7
    ...
    2016 09 29    04 09 45.0 +10 18 09   0.04829 1.0288   123.0    54.7    23.8
    ...
    2016 10 14    04 04 42.8 +10 01 56   0.08855 1.0654   138.6    38.3    24.7
    
    A. U. Tomatic                (C) Copyright 2016 MPC           M.P.E.C. 2016-R160
    

    Read MPEC 2016-R159 Read MPEC 2016-R161


    MPEC number:

    Enter an MPEC number in one of the following forms:

    • 1997-B01 (the full form)
    • J97B01 (the packed version of the full form)
    • B01 (the abbreviated form)